Regional Weather Roundup
Issued by NWS

Home | Current Version | Previous Version | Text Only | Print | Product List | Glossary Off
Versions: 1 2 3 4 5 6 7 8 9 10 11 12 13 14 15 16 17 18 19 20 21 22 23 24 25 26 27 28 29 30 31 32 33 34 35 36 37 38 39 40 41 42 43 44 45 46 47 48 49 50

000
ASUS43 KMKX 041311
RWRWI

WISCONSIN REGIONAL WEATHER ROUNDUP
NATIONAL WEATHER SERVICE MILWAUKEE/SULLIVAN WI
700 AM CST SUN DEC 04 2016

NOTE: "FAIR" INDICATES FEW OR NO CLOUDS BELOW 12,000 FEET WITH NO
SIGNIFICANT WEATHER AND/OR OBSTRUCTIONS TO VISIBILITY.

WIZ001-002-006>008-014>016-023>028-041400-
NORTHWEST WISCONSIN

CITY           SKY/WX    TMP DP  RH WIND       PRES   REMARKS
SUPERIOR ARPT  LGT SNOW  29  28  96 CALM      29.99F
ASHLAND        CLOUDY    30  24  78 VRB7      30.03F WCI  23
HAYWARD        LGT SNOW  28  25  88 VRB3      30.00F FOG
SIREN          LGT SNOW  30  28  94 SE8       29.96F WCI  22
CUMBERLAND     LGT SNOW  28  27  93 SE8       29.97F WCI  20
RICE LAKE      LGT SNOW  30  28  94 SE9       30.01F WCI  21
CHETEK         LGT SNOW  29  28  96 SE7       30.00F WCI  22
LADYSMITH      LGT SNOW  29  28  95 SE6       30.04F WCI  23
EAU CLAIRE     LGT SNOW  30  29  96 SE8       30.00F FOG     WCI  22
MENOMONIE      LGT SNOW  31  31  98 E8        29.99F WCI  24
NEW RICHMOND   LGT SNOW  31  31  99 SE8       29.96F WCI  23
OSCEOLA        LGT SNOW  31  31 100 SE8       29.98F WCI  24
$$

WIZ003>005-009-010-017-018-041400-
NORTH CENTRAL WISCONSIN

CITY           SKY/WX    TMP DP  RH WIND       PRES   REMARKS
MANITOWISH WTR FLURRIES  26  24  95 S8        30.03S WCI  17
ARBOR VITAE    LGT SNOW  27  24  88 S5        30.04S WCI  22
WOODRUFF       LGT SNOW  27  24  88 S5        30.04S WCI  22
RHINELANDER    LGT SNOW  26  24  92 S5        30.06F FOG     WCI  20
EAGLE RIVER    MOCLDY    26  20  77 S5        30.04F WCI  21
LAND O LAKES   CLOUDY    27  21  80 S6        30.05F WCI  20
PHILLIPS       LGT SNOW  27  25  95 SE6       30.02F WCI  20
TOMAHAWK       LGT SNOW  26  23  91 SE3       30.06F
MEDFORD        LGT SNOW  26  25  93 SE8       30.03F WCI  18
MERRILL        LGT SNOW  27  24  87 SE5       30.08S WCI  22
$$

WIZ029-030-035-036-043>047-041400-
CENTRAL WISCONSIN

CITY           SKY/WX    TMP DP  RH WIND       PRES   REMARKS
WAUSAU         LGT SNOW  27  24  89 SE6       30.07F FOG     WCI  20
MOSINEE        LGT SNOW  27  27 100 SE5       30.09F WCI  21
MARSHFIELD     LGT SNOW  28  25  88 SE8       30.05F FOG     WCI  20
STEVENS POINT  MIX PCPN  26  26  98 SE5       30.10F WCI  21
WAUPACA        LGT SNOW  31  28  87 CALM      30.13F
WAUTOMA        LGT SNOW  28  27  93 SE6       30.12F FOG     WCI  22
WISC RAPIDS    LGT SNOW  29  28  96 SE5       30.09F FOG     WCI  24
CAMP DOUGLAS   LGT SNOW  30  29  95 E8        30.07F FOG     WCI  22
$$

WIZ011>013-019>022-031-037>040-048>050-041400-
NORTHEAST WISCONSIN

CITY           SKY/WX    TMP DP  RH WIND       PRES   REMARKS
ANTIGO         CLOUDY    26  23  87 S8        30.08F WCI  18
SHAWANO        LGT RAIN  31  26  78 CALM      30.14F
OCONTO         CLOUDY    30  23  74 CALM      30.16F
STURGEON BAY   CLOUDY    30  24  78 S5        30.17S WCI  25
GREEN BAY      CLOUDY    32  26  78 S3        30.16S
MANITOWOC      MIX PCPN  31  24  75 SW3       30.17S
APPLETON       LGT SNOW  30  25  80 S5        30.13S WCI  25
CLINTONVILLE   LGT SNOW  30  27  86 SE5       30.13F WCI  25
OSHKOSH        LGT SNOW  30  26  85 S7        30.13F VSB 3/4 WCI  23
$$

WIZ032>034-041-042-053>061-041400-
SOUTHWEST WISCONSIN

CITY           SKY/WX    TMP DP  RH WIND       PRES   REMARKS
LA CROSSE      LGT SNOW  34  31  88 SE12G18   30.03F FOG     WCI  25
SPARTA         LGT SNOW  31  31  98 SE6       30.06F WCI  25
VIROQUA        CLOUDY    31  31 100 SE12      30.03F WCI  21
BOSCOBEL       LGT SNOW  33  30  88 SE5       30.08F FOG     WCI  29
PRAIRIE DU CHI LGT SNOW  32  31  96 SE7       30.05F WCI  26
PLATTEVILLE    CLOUDY    31  31 100 SE12      30.07F WCI  22
$$

WIZ056-057-062-063-064-067-068-041400-
SOUTH CENTRAL WISCONSIN

CITY           SKY/WX    TMP DP  RH WIND       PRES   REMARKS
REEDSBURG      LGT RAIN  30  30 100 SE3       30.09F
BARABOO/DELLS  LGT SNOW  31  29  95 SE6       30.09F WCI  25
LONE ROCK      LGT SNOW  31  30  96 SE7       30.10F VSB 3/4 WCI  24
MINERAL POINT  LGT SNOW  32  32 100 SE12      30.07F WCI  23
MADISON        LGT SNOW  31  29  92 SE10      30.12F VSB 1   WCI  22
MIDDLETON      CLOUDY    32  32 100 SE7       30.11F WCI  26
WATERTOWN      CLOUDY    30  29  96 SE5       30.14F WCI  25
MONROE         LGT SNOW  30  30 100 SE10G16   30.10F WCI  21
JANESVILLE     CLOUDY    34  28  80 SE10      30.13F WCI  26
$$

WIZ051-052-058>065-066-070>072-041400-
SOUTHEAST WISCONSIN

CITY           SKY/WX    TMP DP  RH WIND       PRES   REMARKS
MILWAUKEE      CLOUDY    33  25  72 CALM      30.17F
WAUKESHA       CLOUDY    28  25  86 CALM      30.18S
MILWAUKEE/TIMM CLOUDY    30  23  74 CALM      30.18F
RACINE         CLOUDY    31  26  82 CALM      30.20R
BURLINGTON     MOCLDY    30  28  90 CALM      30.16F
KENOSHA        CLOUDY    31  27  85 CALM      30.18R
FOND DU LAC    LGT SNOW  30  25  81 S9        30.15S WCI  22
SHEBOYGAN      CLOUDY    30  25  81 S5        30.16F WCI  25
WEST BEND      FLURRIES  30  27  86 CALM      30.16F
JUNEAU         LGT SNOW  29  28  95 SE7       30.15F WCI  22
$$

LSZ147-162-041400-
LAKE SUPERIOR

STATION/POSITION TIME  TEMP    WIND        PRES    WAVE
                       AIR SEA DIR/SP/G            HT/PER
                 (UTC) (F)     (DEG/KT/KT) (MB)    (FT/S)
DEVILS ISLAND    1200   31     170/  5/  8 1018.3F
PORT WING        1240   30     140/  4/  8 1016.6F
SAXON HARBOR     1230   30     160/  3/  9 1017.3F
$$

LMZ867-665-643>646-041400-
LAKE MICHIGAN

STATION/POSITION TIME  TEMP    WIND        PRES    WAVE
                       AIR SEA DIR/SP/G            HT/PER
                 (UTC) (F)     (DEG/KT/KT) (MB)    (FT/S)
CHAMBERS ISLAND  1240   34     180/  2/  8 1020.7S
NORTHPORT PIER   1240   33        CALM     1021.3S
SISTER BAY       1238   33        CALM       N/A
ALGOMA LAKESHORE 1236          270/  5/  6   N/A
KEWAUNEE LAKESHO 1248   31     240/  4/  7 1021.2S
SHEBOYGAN LAKESH 1200   32     240/  4/  5 1022.4F
PORT WASHINGTON  1230   32     250/  5/  7 1023.0S
MILWAUKEE LAKESH 1250   33     240/  4/  5   N/A
S MID LAKE BUOY  1150   36 48  280/  2/  4 1022.3F   0
KENOSHA   LAKESH 1200   33     280/  2/  2 1022.0
$$

TC  - TEMPERATURE IN CELSIUS
VSB - VISIBILITY IN STATUTE MILES
WCI - WIND CHILL INDEX
HX  - HEAT INDEX





USA.gov is the U.S. government's official web portal to all federal, state and local government web resources and services.